User: anonymous   Login
Location: Asarope
(8.2500°N, 4.4833°E)
Time: 16:18:27
(UTC+00:00)
Language:

GEOS 3 Rocket - Orbit

View from above orbital plane
View from above orbital plane
View from above satellite
View from above satellite

Ground track
Ground track

The orbit data is extracted from the following two-line orbital elements,

1  7735U 75027B   20224.49703430 -.00000157 +00000-0 +90925-5 0  9997
2  7735 114.9738 138.5309 0053602 293.8332 065.7136 14.24613186354165
Epoch (UTC): 11 August 2020 11:55:43
Eccentricity: 0.0053602
inclination: 114.9738°
perigee height: 771 km
apogee height: 848 km
right ascension of ascending node: 138.5309°
argument of perigee: 293.8332°
revolutions per day: 14.24613186
mean anomaly at epoch: 65.7136°
orbit number at epoch: 35416

The dashed part of the orbit path shows where the satellite is in the earth's shadow,  

DLR